This is the latest recevied weather packets stored in our database for station/object YO8CLN-10. If no packets are shown the sender has not sent any weather packets the latest 10 day(s).
| Time | Temp. | Humidity | Pressure | Rain* | Wind** | Luminosity | Snow |
|---|---|---|---|---|---|---|---|
| 1777107979 | 12.22° C | 57% | 1111 hPa | 0 mm | - | - | - |
| 1777107379 | 12.22° C | 58% | 1111 hPa | 0 mm | - | - | - |
| 1777106778 | 11.67° C | 59% | 1111 hPa | 0 mm | - | - | - |
| 1777106428 | 11.11° C | 60% | 1111 hPa | 0 mm | - | - | - |
| 1777106178 | 11.11° C | 59% | 1111 hPa | 0 mm | - | - | - |
| 1777105577 | 11.11° C | 62% | 1111 hPa | 0 mm | - | - | - |
| 1777105278 | 10.56° C | 63% | 1111 hPa | 0 mm | - | - | - |
| 1777104976 | 10° C | 62% | 1111 hPa | 0 mm | - | - | - |
| 1777104376 | 10° C | 65% | 1111 hPa | 0.51 mm | - | - | - |
| 1777103775 | 9.44° C | 68% | 1111 hPa | 132.59 mm | - | - | - |
| 1777103175 | 8.89° C | 71% | 1111 hPa | 132.59 mm | - | - | - |
| 1777102574 | 8.33° C | 72% | 1111 hPa | 132.59 mm | - | - | - |
| 1777101973 | 7.78° C | 72% | 1111 hPa | 132.59 mm | - | - | - |
| 1777101373 | 7.78° C | 73% | 1111 hPa | 132.59 mm | - | - | - |
| 1777100772 | 6.67° C | 74% | 1111 hPa | 132.08 mm | - | - | - |
| 1777100172 | 6.67° C | 75% | 1111 hPa | 0 mm | - | - | - |
| 1777099571 | 6.11° C | 75% | 1111 hPa | 0 mm | - | - | - |
| 1777098971 | 5.56° C | 76% | 1111 hPa | 0 mm | - | - | - |
| 1777098370 | 5.56° C | 76% | 1111 hPa | 132.08 mm | - | - | - |
| 1777097769 | 5° C | 77% | 1111 hPa | 10.16 mm | - | - | - |
| 1777097169 | 4.44° C | 77% | 1111 hPa | 198.63 mm | - | - | - |
| 1777096568 | 4.44° C | 77% | 1111 hPa | 198.63 mm | - | - | - |
| 1777096149 | 4.44° C | 77% | 1111 hPa | 198.63 mm | - | - | - |
| 1777095968 | 4.44° C | 77% | 1111 hPa | 198.63 mm | - | - | - |
| 1777095367 | 4.44° C | 77% | 1111 hPa | 198.63 mm | - | - | - |
* Rain latest hour (hover to see other rain measurements)
** Current wind speed in m/s (hover to see current wind gust speed)